Regional Weather Roundup
Issued by NWS

Home | Current Version | Previous Version | Graphics & Text | Print | Product List | Glossary On
Versions: 1 2 3 4 5 6 7 8 9 10 11 12 13 14 15 16 17 18 19 20 21 22 23 24 25 26 27 28 29 30 31 32 33 34 35 36 37 38 39 40 41 42 43 44 45 46 47 48 49 50
000
ASUS43 KMKX 232000
RWRWI

WISCONSIN REGIONAL WEATHER ROUNDUP
NATIONAL WEATHER SERVICE MILWAUKEE/SULLIVAN WI
300 PM CDT TUE AUG 23 2016

NOTE: "FAIR" INDICATES FEW OR NO CLOUDS BELOW 12,000 FEET WITH NO
SIGNIFICANT WEATHER AND/OR OBSTRUCTIONS TO VISIBILITY.

WIZ001-002-006>008-014>016-023>028-232100-
NORTHWEST WISCONSIN

CITY           SKY/WX    TMP DP  RH WIND       PRES   REMARKS
SUPERIOR ARPT  MOSUNNY   86  68  55 SW13      29.87S HX  89
ASHLAND        SUNNY     85  65  51 S22G30    29.91F HX  86
HAYWARD        SUNNY     82  65  56 S13G22    29.95S HX  84
SIREN          SUNNY     84  65  53 S13G18    29.93R HX  86
CUMBERLAND     SUNNY     79  63  57 S18G26    29.96S HX  80
RICE LAKE      SUNNY     81  64  55 S16G22    29.98S HX  83
CHETEK         NOT AVBL
LADYSMITH      MOSUNNY   81  64  56 S15G22    30.01F HX  83
EAU CLAIRE     NOT AVBL
MENOMONIE      PTSUNNY   84  67  56 SE15      29.97S HX  86
NEW RICHMOND   PTSUNNY   80  66  62 S16G22    29.94F HX  82
OSCEOLA        PTSUNNY   82  68  60 S16G23    29.95S HX  85
$$

WIZ003>005-009-010-017-018-232100-
NORTH CENTRAL WISCONSIN

CITY           SKY/WX    TMP DP  RH WIND       PRES   REMARKS
MANITOWISH WTR NOT AVBL
ARBOR VITAE    CLOUDY    80  62  55 SW10      30.02F HX  81
WOODRUFF       CLOUDY    80  62  55 SW10      30.02F HX  81
RHINELANDER    MOSUNNY   80  64  58 S14G25    30.04F HX  82
EAGLE RIVER    SUNNY     80  57  46 S13G23    30.03S HX  80
LAND O LAKES   SUNNY     81  57  43 S13G18    30.03F HX  81
PHILLIPS       SUNNY     78  65  64 S13       30.00F HX  80
TOMAHAWK       MOSUNNY   78  65  63 S6        30.04F HX  80
MEDFORD        MOSUNNY   77  65  67 S14G20    30.03F
MERRILL        MOSUNNY   78  65  63 SW10G18   30.05F HX  80
$$

WIZ029-030-035-036-043>047-232100-
CENTRAL WISCONSIN

CITY           SKY/WX    TMP DP  RH WIND       PRES   REMARKS
WAUSAU         MOSUNNY   79  62  56 S9        30.04F HX  80
MOSINEE        NOT AVBL
MARSHFIELD     MOSUNNY   80  62  54 S14       30.04F HX  81
STEVENS POINT  MOSUNNY   79  61  53 S12       30.07F HX  80
WAUPACA        CLOUDY    83  62  49 S10G17    30.08F HX  83
WAUTOMA        MOSUNNY   80  63  55 SW13      30.07F HX  81
WISC RAPIDS    SUNNY     83  64  52 S8G21     30.07F HX  84
CAMP DOUGLAS   NOT AVBL
$$

WIZ011>013-019>022-031-037>040-048>050-232100-
NORTHEAST WISCONSIN

CITY           SKY/WX    TMP DP  RH WIND       PRES   REMARKS
ANTIGO         PTSUNNY   77  63  62 S14       30.07F
SHAWANO        PTSUNNY   83  62  49 S9G18     30.07F HX  83
OCONTO         NOT AVBL
STURGEON BAY   MOSUNNY   76  63  64 S20G25    30.08F
GREEN BAY      PTSUNNY   80  64  58 SW17G25   30.08F HX  82
MANITOWOC      NOT AVBL
APPLETON       PTSUNNY   79  57  47 SW16G22   30.08F HX  80
CLINTONVILLE   MOSUNNY   79  61  53 S14       30.06F HX  80
OSHKOSH        MOSUNNY   79  63  57 S14G23    30.08F HX  80
$$

WIZ032>034-041-042-053>061-232100-
SOUTHWEST WISCONSIN

CITY           SKY/WX    TMP DP  RH WIND       PRES   REMARKS
LA CROSSE      PTSUNNY   85  72  65 S20       30.00F HX  91
SPARTA         MOSUNNY   82  64  53 S12G18    30.04F HX  83
VIROQUA        PTSUNNY   80  62  53 S12G20    30.06S HX  81
BOSCOBEL       MOSUNNY   84  63  49 S10G20    30.05F HX  85
PRAIRIE DU CHI MOSUNNY   82  61  49 SE12G18   30.04S HX  82
PLATTEVILLE    MOSUNNY   79  66  64 S15G22    30.09F HX  81
$$

WIZ056-057-062-063-064-067-068-232100-
SOUTH CENTRAL WISCONSIN

CITY           SKY/WX    TMP DP  RH WIND       PRES   REMARKS
REEDSBURG      NOT AVBL
BARABOO/DELLS  MOSUNNY   78  60  54 S10G21    30.08F
LONE ROCK      NOT AVBL
MINERAL POINT  PTSUNNY   79  63  57 S14       30.10F HX  80
MADISON        PTSUNNY   80  61  52 S20       30.09F HX  81
MIDDLETON      MOSUNNY   82  61  49 S17       30.10F HX  82
WATERTOWN      PTSUNNY   80  63  57 S13G18    30.11F HX  81
MONROE         MOSUNNY   79  61  53 S16G22    30.11F HX  80
JANESVILLE     MOSUNNY   82  61  47 S14       30.11F HX  83
$$

WIZ051-052-058>065-066-070>072-232100-
SOUTHEAST WISCONSIN

CITY           SKY/WX    TMP DP  RH WIND       PRES   REMARKS
MILWAUKEE      PTSUNNY   82  59  45 S13G23    30.12F HX  82
WAUKESHA       MOSUNNY   79  59  50 SW10G16   30.14F HX  80
MILWAUKEE/TIMM PTSUNNY   81  55  41 SW13      30.12F HX  80
RACINE         MOSUNNY   79  62  56 SE13      30.15F HX  80
BURLINGTON     MOSUNNY   79  58  48 S10G17    30.14F HX  80
KENOSHA        MOSUNNY   82  60  47 S12G20    30.14F HX  82
FOND DU LAC    MOSUNNY   79  63  57 S16G24    30.09F HX  80
SHEBOYGAN      MOSUNNY   78  64  61 S10       30.11F HX  80
WEST BEND      PTSUNNY   77  59  53 S9        30.12F
JUNEAU         MOSUNNY   79  62  56 S13       30.12F HX  80
$$

LSZ147-162-232100-
LAKE SUPERIOR

STATION/POSITION TIME  TEMP    WIND        PRES    WAVE
                       AIR SEA DIR/SP/G            HT/PER
                 (UTC) (F)     (DEG/KT/KT) (MB)    (FT/S)
W MID LAKE BUOY  1850   69 67  140/  4/  6 1012.3F   1/ 4
DEVILS ISLAND    1900   81     180/  9/ 14 1011.8F
SAXON HARBOR     1800   84     200/ 10/ 17 1012.9
$$

LMZ867-665-643>646-232100-
LAKE MICHIGAN

STATION/POSITION TIME  TEMP    WIND        PRES    WAVE
                       AIR SEA DIR/SP/G            HT/PER
                 (UTC) (F)     (DEG/KT/KT) (MB)    (FT/S)
CHAMBERS ISLAND  1900   77     190/  7/ 13 1018.3F
S GREEN BAY BUOY 1900   76 74  210/ 16/ 17 1018.2F
N MID LAKE BUOY  1850   72 71  200/ 17/ 21 1018.3F   5/ 6
NORTHPORT PIER   1900   76     160/  9/ 17 1018.6S
SISTER BAY       1807   81     180/ 12/ 16   N/A
KEWAUNEE LAKESHO 1900   66     180/ 11/ 12 1019.3F
SHEBOYGAN LAKESH 1800   66     180/ 16/ 17 1020.9F
PORT WASHINGTON  1900   72     200/  6/ 11 1021.0F
ATWATER BUOY     1900   69 61  160/ 14/ 17   N/A
MILWAUKEE LAKESH 1910   70     150/ 12/ 16   N/A
S MID LAKE BUOY  1850   74 75  170/ 17/ 19 1021.3F   3/ 4
KENOSHA   LAKESH 1900   74     160/ 13/ 17 1020.3F
$$

TC  - TEMPERATURE IN CELSIUS
VSB - VISIBILITY IN STATUTE MILES
WCI - WIND CHILL INDEX
HX  - HEAT INDEX




USA.gov is the U.S. government's official web portal to all federal, state and local government web resources and services.